BEIDOU-3 M18 (C37)

Last updated on Dec. 12, 2019, 4:25 a.m. UTC

1 43707U 18093B   19345.73986806  .00000008  00000-0  00000+0 0  9998
2 43707  54.7523 263.4329 0009654 288.3430 294.3206  1.86231964  7216
UTC
Height (km)
Latitude
Longitude
Inclination
Orbital Period
UTC large
Height (km)
Speed (km/s)
/
Latitude / Longitude
Inclination (degrees)
Orbital Period (minutes)
Azimuth
Elevation
Range (km)
Doppler Factor
iOS Compass Heading
iOS Angle

Next 30 passes for location: Hong Kong

Rise time Rise Azimuth (degrees) Set time Set Azimuth (degrees) Duration Max altitude (degrees)

No matching passes for this satellites